TimeCDT,TemperatureF,Dew PointF,Humidity,Sea Level PressureIn,VisibilityMPH,Wind Direction,Wind SpeedMPH,Gust SpeedMPH,PrecipitationIn,Events,Conditions,WindDirDegrees,DateUTC
12:15 AM,73.4,71.6,94,29.61,6.0,South,16.1,21.9,0.08,Rain,Light Rain,180,2012-10-01 05:15:00
12:53 AM,75.2,73.4,94,29.59,6.0,SSE,6.9,-,0.10,,Overcast,160,2012-10-01 05:53:00
12:56 AM,75.0,73.0,94,29.58,6.0,South,5.8,-,0.10,,Overcast,170,2012-10-01 05:56:00
1:56 AM,75.0,73.0,94,29.57,10.0,South,8.1,-,N/A,,Scattered Clouds,190,2012-10-01 06:56:00
2:25 AM,75.2,73.4,94,29.56,10.0,South,5.8,-,N/A,,Overcast,180,2012-10-01 07:25:00
2:56 AM,75.0,73.0,94,29.55,10.0,South,6.9,-,N/A,,Overcast,180,2012-10-01 07:56:00
3:47 AM,75.2,71.6,89,29.53,10.0,South,8.1,-,N/A,,Scattered Clouds,190,2012-10-01 08:47:00
3:56 AM,75.9,72.0,87,29.54,5.0,SW,10.4,18.4,0.00,Rain,Light Rain,220,2012-10-01 08:56:00
4:56 AM,73.9,72.0,93,29.54,10.0,SSW,11.5,-,0.03,,Mostly Cloudy,210,2012-10-01 09:56:00
5:56 AM,73.9,71.1,91,29.55,10.0,SW,9.2,-,N/A,,Scattered Clouds,220,2012-10-01 10:56:00
6:56 AM,73.0,69.1,87,29.57,10.0,SSW,6.9,-,N/A,,Mostly Cloudy,210,2012-10-01 11:56:00
7:56 AM,73.0,69.1,87,29.58,10.0,SW,8.1,-,0.00,,Mostly Cloudy,230,2012-10-01 12:56:00
8:56 AM,75.0,68.0,79,29.60,10.0,SW,10.4,-,N/A,,Mostly Cloudy,220,2012-10-01 13:56:00
9:56 AM,73.0,64.9,76,29.63,10.0,WSW,10.4,-,N/A,,Mostly Cloudy,240,2012-10-01 14:56:00
10:56 AM,72.0,64.0,76,29.63,10.0,WSW,5.8,-,N/A,,Mostly Cloudy,240,2012-10-01 15:56:00
11:56 AM,73.0,64.0,73,29.64,10.0,SSW,10.4,-,N/A,,Overcast,200,2012-10-01 16:56:00
12:56 PM,71.1,63.0,75,29.62,10.0,West,8.1,-,N/A,,Mostly Cloudy,280,2012-10-01 17:56:00
1:56 PM,72.0,62.1,71,29.61,10.0,SW,9.2,-,N/A,,Mostly Cloudy,230,2012-10-01 18:56:00
2:42 PM,71.6,62.6,73,29.61,10.0,SW,6.9,-,N/A,,Mostly Cloudy,220,2012-10-01 19:42:00
2:56 PM,71.1,62.1,73,29.60,10.0,WSW,9.2,-,N/A,,Mostly Cloudy,240,2012-10-01 19:56:00
3:56 PM,70.0,61.0,73,29.61,7.0,WSW,9.2,-,N/A,,Overcast,240,2012-10-01 20:56:00
4:15 PM,69.8,60.8,73,29.62,10.0,SW,9.2,-,N/A,,Overcast,230,2012-10-01 21:15:00
4:56 PM,68.0,60.1,76,29.62,10.0,WSW,6.9,-,N/A,,Overcast,250,2012-10-01 21:56:00
5:42 PM,66.2,60.8,83,29.64,10.0,West,5.8,-,N/A,,Overcast,280,2012-10-01 22:42:00
5:56 PM,66.9,60.1,79,29.64,10.0,West,8.1,-,N/A,,Overcast,280,2012-10-01 22:56:00
6:50 PM,64.4,60.8,88,29.67,6.0,West,5.8,-,0.00,,Light Drizzle,270,2012-10-01 23:50:00
6:56 PM,64.0,61.0,90,29.66,4.0,West,5.8,-,0.00,Rain,Light Rain,260,2012-10-01 23:56:00
7:25 PM,62.6,60.8,94,29.68,7.0,West,4.6,-,0.00,,Overcast,270,2012-10-02 00:25:00
7:56 PM,63.0,61.0,93,29.69,7.0,West,3.5,-,0.00,,Overcast,270,2012-10-02 00:56:00
8:41 PM,62.6,60.8,94,29.71,7.0,West,3.5,-,N/A,,Overcast,260,2012-10-02 01:41:00
8:56 PM,63.0,61.0,93,29.71,7.0,WSW,3.5,-,N/A,,Overcast,240,2012-10-02 01:56:00
9:06 PM,62.6,60.8,94,29.72,7.0,WSW,4.6,-,N/A,,Overcast,240,2012-10-02 02:06:00
9:44 PM,62.6,60.8,94,29.73,7.0,West,3.5,-,N/A,,Overcast,260,2012-10-02 02:44:00
9:56 PM,63.0,60.1,90,29.73,7.0,SW,4.6,-,N/A,,Overcast,230,2012-10-02 02:56:00
10:56 PM,63.0,60.1,90,29.74,10.0,SW,4.6,-,N/A,,Overcast,230,2012-10-02 03:56:00
11:17 PM,62.6,60.8,94,29.74,8.0,WSW,4.6,-,N/A,,Overcast,250,2012-10-02 04:17:00
11:56 PM,63.0,60.1,90,29.74,8.0,West,5.8,-,N/A,,Overcast,260,2012-10-02 04:56:00